Change the Weather History Date:

Monday, March 31, 2014

  Actual Average (KAUS) Record (KAUS)
Temperature  
Mean Temperature 68 °F 63 °F  
Max Temperature 81 °F 76 °F 89 °F (1974)
Min Temperature 55 °F 51 °F 33 °F (1987)
Degree Days  
Heating Degree Days 0 4  
Month to date heating degree days 223  
Since 1 July heating degree days 1837  
Cooling Degree Days 3 2  
Month to date cooling degree days 42  
Year to date cooling degree days 58  
Growing Degree Days 18 (Base 50)    
Moisture  
Dew Point 61 °F    
Average Humidity 78    
Maximum Humidity 99    
Minimum Humidity 51    
Precipitation  
Precipitation 0.00 in 0.06 in 1.51 in (1953)
Month to date precipitation 2.51  
Year to date precipitation 7.11  
Snow  
Snow 0.00 in - - ()
Month to date snowfall  
Since 1 July snowfall  
Snow Depth -    
Sea Level Pressure  
Sea Level Pressure 29.95 in    
Wind  
Wind Speed 5 mph (SSE)    
Max Wind Speed 20 mph    
Max Gust Speed 25 mph    
Visibility 10 miles    
Events      
T = Trace of Precipitation, MM = Missing Value Source: NWS Daily Summary

Daily Weather History Graph

Daily Weather History Graph

Search for Another Location

Airport or City:

Trip Planner

Search our weather history database for the weather conditions in past years. The results will help you decide how hot, cold, wet, or windy it might be!

Date:

Astronomy

Mar. 31, 2014 Rise Set
Actual Time 7:18 AM CDT 7:45 PM CDT
Civil Twilight 6:54 AM CDT 8:09 PM CDT
Nautical Twilight 6:26 AM CDT 8:38 PM CDT
Astronomical Twilight 5:57 AM CDT 9:06 PM CDT
Moon 7:47 AM CDT (3/31) 8:59 PM CDT (3/31)
Length of Visible Light 13h 15m
Length of Day
12h 27m
New Moon, 1% of the Moon is Illuminated
Mar 31
New Moon
Apr 7
First Quarter
Apr 15
Full
Apr 22
Last Quarter
Apr 29
New

Hourly Weather History & Observations

Time (CDT) Temp. Heat Index Dew Point Humidity Pressure Visibility Wind Dir Wind Speed Gust Speed Precip Events Conditions
12:15 AM 57.4 °F - 53.1 °F 85% 30.04 in 10.0 mi Calm Calm - N/A   Clear
12:35 AM 56.8 °F - 52.9 °F 87% 30.04 in 10.0 mi Calm Calm - N/A   Clear
12:55 AM 55.9 °F - 52.7 °F 89% 30.04 in 10.0 mi Calm Calm - N/A   Clear
1:15 AM 56.1 °F - 52.9 °F 89% 30.03 in 10.0 mi Calm Calm - N/A   Clear
1:35 AM 56.1 °F - 53.1 °F 89% 30.02 in 10.0 mi Calm Calm - N/A   Clear
1:55 AM 56.7 °F - 53.8 °F 90% 30.01 in 10.0 mi SSE 4.6 mph - N/A   Mostly Cloudy
2:15 AM 57.4 °F - 54.5 °F 90% 30.02 in 10.0 mi Calm Calm - N/A   Overcast
2:35 AM 58.1 °F - 55.0 °F 90% 30.01 in 10.0 mi Calm Calm - N/A   Mostly Cloudy
2:55 AM 59.2 °F - 55.9 °F 89% 30.00 in 10.0 mi SSE 6.9 mph - N/A   Mostly Cloudy
3:15 AM 59.9 °F - 56.5 °F 88% 29.99 in 10.0 mi SSE 5.8 mph - N/A   Mostly Cloudy
3:35 AM 60.4 °F - 57.0 °F 88% 29.98 in 10.0 mi SSE 6.9 mph - N/A   Mostly Cloudy
3:55 AM 60.3 °F - 57.0 °F 89% 29.97 in 10.0 mi SSE 8.1 mph - N/A   Mostly Cloudy
4:15 AM 60.3 °F - 57.2 °F 90% 29.96 in 10.0 mi SSE 5.8 mph - N/A   Mostly Cloudy
4:35 AM 59.9 °F - 57.2 °F 91% 29.96 in 10.0 mi SSE 4.6 mph - N/A   Mostly Cloudy
4:55 AM 59.2 °F - 57.4 °F 94% 29.96 in 10.0 mi SSE 4.6 mph - N/A   Scattered Clouds
5:15 AM 59.0 °F - 57.2 °F 94% 29.95 in 10.0 mi SSE 4.6 mph - N/A   Clear
5:35 AM 58.1 °F - 56.7 °F 95% 29.94 in 10.0 mi SSE 3.5 mph - N/A   Clear
5:55 AM 58.1 °F - 57.0 °F 96% 29.94 in 10.0 mi Calm Calm - N/A   Clear
6:15 AM 57.2 °F - 56.5 °F 97% 29.95 in 10.0 mi Calm Calm - N/A   Clear
6:35 AM 56.5 °F - 56.1 °F 99% 29.95 in 7.0 mi Calm Calm - N/A   Scattered Clouds
6:55 AM 56.3 °F - 55.9 °F 99% 29.95 in 7.0 mi Calm Calm - N/A   Scattered Clouds
7:15 AM 56.5 °F - 56.1 °F 99% 29.96 in 7.0 mi Calm Calm - N/A   Scattered Clouds
7:35 AM 57.6 °F - 57.0 °F 98% 29.96 in 7.0 mi Calm Calm - N/A   Mostly Cloudy
7:55 AM 58.8 °F - 58.1 °F 97% 29.96 in 7.0 mi Calm Calm - N/A   Mostly Cloudy
8:15 AM 59.4 °F - 58.5 °F 97% 29.96 in 7.0 mi Calm Calm - N/A   Mostly Cloudy
8:35 AM 61.3 °F - 59.7 °F 94% 29.96 in 7.0 mi Calm Calm - N/A   Scattered Clouds
8:55 AM 63.3 °F - 61.0 °F 92% 29.96 in 10.0 mi SSE 5.8 mph - N/A   Clear
9:15 AM 65.8 °F - 62.2 °F 88% 29.96 in 10.0 mi SSE 8.1 mph - N/A   Clear
9:35 AM 68.0 °F - 63.0 °F 84% 29.95 in 10.0 mi South 11.5 mph 17.3 mph N/A   Scattered Clouds
9:55 AM 68.5 °F - 63.5 °F 84% 29.95 in 10.0 mi South 16.1 mph 23.0 mph N/A   Scattered Clouds
10:10 AM 69.4 °F - 63.5 °F 81% 29.95 in 10.0 mi South 17.3 mph 23.0 mph N/A   Scattered Clouds
10:35 AM 70.0 °F - 63.3 °F 79% 29.96 in 10.0 mi South 16.1 mph 21.9 mph N/A   Scattered Clouds
10:55 AM 71.8 °F - 64.0 °F 77% 29.96 in 10.0 mi South 16.1 mph 21.9 mph N/A   Scattered Clouds
11:15 AM 72.0 °F - 63.0 °F 73% 29.98 in 10.0 mi South 12.7 mph 20.7 mph N/A   Mostly Cloudy
11:35 AM 73.8 °F - 62.8 °F 68% 29.98 in 10.0 mi South 12.7 mph 17.3 mph N/A   Mostly Cloudy
11:55 AM 74.8 °F - 62.4 °F 65% 29.98 in 10.0 mi South 13.8 mph 23.0 mph N/A   Scattered Clouds
12:15 PM 75.9 °F - 63.0 °F 64% 29.97 in 10.0 mi South 13.8 mph 20.7 mph N/A   Scattered Clouds
12:35 PM 76.6 °F - 62.6 °F 62% 29.96 in 10.0 mi South 13.8 mph - N/A   Scattered Clouds
12:55 PM 77.7 °F - 62.2 °F 59% 29.95 in 10.0 mi South 15.0 mph 19.6 mph N/A   Scattered Clouds
1:15 PM 77.4 °F - 61.7 °F 58% 29.94 in 10.0 mi South 19.6 mph 25.3 mph N/A   Scattered Clouds
1:35 PM 78.3 °F - 61.7 °F 57% 29.93 in 10.0 mi South 15.0 mph 24.2 mph N/A   Scattered Clouds
1:55 PM 79.2 °F - 61.7 °F 55% 29.93 in 10.0 mi South 13.8 mph 20.7 mph N/A   Clear
2:15 PM 80.1 °F 81.5 °F 63.1 °F 56% 29.92 in 10.0 mi South 9.2 mph 17.3 mph N/A   Clear
2:35 PM 79.9 °F - 61.0 °F 52% 29.92 in 10.0 mi SSW 15.0 mph - N/A   Clear
2:55 PM 80.1 °F 81.1 °F 61.7 °F 53% 29.91 in 10.0 mi South 13.8 mph 23.0 mph N/A   Clear
3:15 PM 80.1 °F 81.2 °F 62.2 °F 54% 29.91 in 10.0 mi South 12.7 mph 18.4 mph N/A   Clear
3:35 PM 80.6 °F 81.6 °F 61.7 °F 52% 29.90 in 10.0 mi SSW 11.5 mph 18.4 mph N/A   Clear
3:55 PM 80.8 °F 81.9 °F 62.1 °F 53% 29.89 in 10.0 mi South 12.7 mph 19.6 mph N/A   Clear
4:15 PM 81.0 °F 81.8 °F 61.2 °F 51% 29.89 in 10.0 mi SSW 13.8 mph 19.6 mph N/A   Clear
4:35 PM 81.5 °F 82.8 °F 63.1 °F 54% 29.89 in 10.0 mi Calm Calm - N/A   Clear
4:55 PM 80.6 °F 81.9 °F 63.1 °F 55% 29.89 in 10.0 mi South 13.8 mph 18.4 mph N/A   Clear
5:15 PM 80.1 °F 81.7 °F 64.2 °F 58% 29.88 in 10.0 mi SSE 9.2 mph - N/A   Scattered Clouds
5:35 PM 80.1 °F 81.8 °F 64.4 °F 59% 29.88 in 10.0 mi SSE 12.7 mph 17.3 mph N/A   Scattered Clouds
5:55 PM 78.8 °F - 63.7 °F 60% 29.88 in 10.0 mi SSE 11.5 mph 17.3 mph N/A   Scattered Clouds
6:15 PM 78.3 °F - 63.7 °F 61% 29.87 in 10.0 mi SSE 11.5 mph 17.3 mph N/A   Clear
6:35 PM 77.5 °F - 62.8 °F 60% 29.88 in 10.0 mi SSE 11.5 mph 17.3 mph N/A   Clear
6:55 PM 76.8 °F - 63.5 °F 63% 29.88 in 10.0 mi SSE 8.1 mph - N/A   Clear
7:15 PM 75.6 °F - 63.5 °F 66% 29.89 in 10.0 mi SSE 4.6 mph - N/A   Clear
7:35 PM 73.8 °F - 63.9 °F 71% 29.89 in 10.0 mi SSE 9.2 mph - N/A   Clear
7:55 PM 72.5 °F - 64.0 °F 75% 29.89 in 10.0 mi SSE 8.1 mph - N/A   Clear
8:15 PM 71.6 °F - 64.0 °F 77% 29.89 in 10.0 mi SSE 8.1 mph - N/A   Clear
8:35 PM 71.1 °F - 64.2 °F 79% 29.90 in 10.0 mi SSE 10.4 mph 16.1 mph N/A   Clear
8:55 PM 70.5 °F - 63.9 °F 79% 29.91 in 10.0 mi SSE 8.1 mph - N/A   Clear
9:15 PM 69.8 °F - 64.0 °F 82% 29.92 in 10.0 mi SSE 9.2 mph - N/A   Clear
9:35 PM 68.9 °F - 63.9 °F 84% 29.93 in 10.0 mi SSE 5.8 mph - N/A   Clear
9:55 PM 68.4 °F - 64.0 °F 86% 29.94 in 10.0 mi SSE 4.6 mph - N/A   Clear
10:15 PM 67.8 °F - 64.0 °F 88% 29.94 in 10.0 mi SSE 5.8 mph - N/A   Clear
10:35 PM 67.6 °F - 64.4 °F 89% 29.95 in 10.0 mi SSE 8.1 mph - N/A   Scattered Clouds
10:55 PM 68.0 °F - 64.9 °F 90% 29.95 in 10.0 mi SSE 5.8 mph - N/A   Mostly Cloudy
11:15 PM 68.4 °F - 65.3 °F 90% 29.95 in 10.0 mi Calm Calm - N/A   Mostly Cloudy
11:35 PM 68.5 °F - 65.7 °F 90% 29.95 in 10.0 mi SSE 8.1 mph - N/A   Overcast
11:55 PM 68.9 °F - 65.8 °F 90% 29.96 in 10.0 mi SSE 4.6 mph - N/A   Mostly Cloudy